Location: Arboyeti
(42.1122°N, 44.6017°E)
Time: 10:41:35
(UTC+00:00)

ATLAS 3B R/B - Pass Details

Date: 19 April 2021
Orbit: 1006 x 1189 km, 63.8° (Epoch: 21 April)

Event Time Altitude Azimuth Distance (km) Brightness Sun altitude
Rises 16:17:05 0° 327° (NNW) 3,873 6.6 -6.0°
Reaches altitude 10° 16:19:53 10° 335° (NNW) 2,943 5.8 -6.5°
Maximum altitude 16:26:29 42° 45° (NE) 1,557 3.4 -7.7°
Enters shadow 16:33:13 10° 114° (ESE) 3,022 4.4 -8.8°
